Flag for Saint Kitts and Nevis Weather past 2 weeks in Basseterre, Saint Kitts and Nevis

Now
86 °F

Scattered clouds.


Feels Like: 95 °F
Forecast: 82 / 85 °F
Wind: 13 mph from South

Location: Golden Rock

Current Time: Aug 22, 2014 at 3:44:02 PM

Latest Report: Aug 22, 2014 at 3:00 PM


Visibility: N/A

Pressure: 29.89 "Hg

Humidity: 70%

Dew point: 75 °F

Location of BasseterreLocation

Historic Weather in Basseterre — Graph

°F

Basseterre temperature yesterday

Maximum temperature yesterday: 84 °F (at 11:00 AM)
Minimum temperature yesterday: 79 °F (at 6:10 AM)
Average temperature yesterday: 81 °F

Past Weeks' High & Low Weather Summary

 TemperatureHumidityPressure
High88 °F (Aug 7, 3:00 PM)100% (Aug 11, 8:00 AM)30.12 "Hg (Aug 11, 8:00 AM)
Low75 °F (Aug 8, 10:00 AM)62% (Aug 7, 3:00 PM)29.86 "Hg (Aug 21, 4:00 PM)
Average83 °F80%30.01 "Hg
* Reported Aug 7 3:00 PM — Aug 22 3:00 PM, Basseterre, Weather by CustomWeather, © 2014

Note: Actual official high and low records may vary slightly from our data, if they occured in-between our weather recording intervals... More about our weather records

Advertising

Basseterre weather history for previous 24 hours

 ConditionsComfort  
Time TempWeatherWind HumidityBarometerVisibility
3:00 PM
Aug 22
86 °FScattered clouds.13 mph70%29.89 "HgN/A
2:00 PM86 °FPassing clouds.14 mph79%29.89 "HgN/A
1:00 PM86 °FPassing clouds.12 mph70%29.92 "HgN/A
12:00 PM84 °FScattered clouds.16 mph79%29.95 "HgN/A
11:00 AM88 °FPassing clouds.13 mph66%29.92 "HgN/A
10:00 AM86 °FPassing clouds.14 mph75%29.92 "HgN/A
9:00 AM86 °FPassing clouds.9 mph75%29.92 "HgN/A
8:00 AM81 °FScattered clouds.14 mph89%29.92 "HgN/A
7:00 AM81 °FLight rain. Broken clouds.12 mph89%29.89 "HgN/A
6:00 AM81 °FSprinkles. Partly sunny.2 mph84%29.86 "HgN/A
10:00 PM
Aug 21
79 °FPassing clouds.9 mph94%29.92 "HgN/A
9:00 PM81 °FScattered showers. Partly cloudy.12 mph94%29.89 "HgN/A
8:00 PM79 °FPartly cloudy.12 mph94%29.89 "HgN/A
7:00 PM79 °FPartly cloudy.9 mph94%30.01 "HgN/A
6:00 PM79 °FLight rain. Passing clouds.8 mph89%29.86 "HgN/A
5:00 PM79 °FSprinkles. Scattered clouds.13 mph89%29.86 "HgN/A
4:00 PM81 °FThunderstorms. Scattered clouds.12 mph89%29.86 "HgN/A
3:00 PM81 °FSprinkles. Partly sunny.12 mph89%29.89 "Hg4 mi
Weather by CustomWeather, © 2014

See weather overviewHow to use our weather pages